Tracking 20242 objects as of 24-Jan-2020
HD Live streaming from Space Station
objects crossing your sky now

COSMOS 2251 DEB

Track COSMOS 2251 DEB now!
10-day predictions


NORAD ID: 34918
Int'l Code: 1993-036ADP
Perigee: 747.7 km
Apogee: 815.4 km
Inclination: 74.1 °
Period: 100.3 minutes
Semi major axis: 7152 km
RCS: 0.0184 m2 (small)
Launch date: June 16, 1993
Source: Commonwealth of Independent States (former USSR) (CIS)
Launch site: PLESETSK MISSILE AND SPACE COMPLEX (PKMTR)

Note: This is SATELLITE DEBRIS
aabbcc
Your satellite tracking list
Your tracking list is empty




NASA's NSSDC Master Catalog

Two Line Element Set (TLE):
1 34918U 93036ADP 20023.58563244 +.00000305 +00000-0 +11406-3 0  9993
2 34918 074.0786 331.8706 0047332 135.0330 038.9085 14.35207537343382
Source of the keplerian elements: AFSPC